Time,TemperatureF,DewpointF,PressureIn,WindDirection,WindDirectionDegrees,WindSpeedMPH,WindSpeedGustMPH,Humidity,HourlyPrecipIn,Conditions,Clouds,dailyrainin,SoftwareType,DateUTC
2013-02-11 00:02:00,45.0,45.0,-100.00,South,185,15.0,21.0,96,0.00,,,-99.99,,2013-02-11 05:02:00,
2013-02-11 00:12:00,45.0,45.0,-100.00,South,190,14.0,23.0,96,0.00,,,-99.99,,2013-02-11 05:12:00,
2013-02-11 00:22:00,45.0,44.0,-100.00,SSW,200,13.0,21.0,96,0.00,,,-99.99,,2013-02-11 05:22:00,
2013-02-11 00:32:00,45.0,44.0,-100.00,SSW,200,13.0,21.0,96,0.00,,,-99.99,,2013-02-11 05:32:00,
2013-02-11 00:42:00,45.0,45.0,-100.00,SSW,200,16.0,22.0,97,0.00,,,-99.99,,2013-02-11 05:42:00,
2013-02-11 00:52:00,45.0,45.0,-100.00,SSW,200,17.0,21.0,97,0.00,,,-99.99,,2013-02-11 05:52:00,
2013-02-11 01:02:00,45.0,45.0,-100.00,SSW,195,13.0,21.0,97,0.00,,,-99.99,,2013-02-11 06:02:00,
2013-02-11 01:12:00,46.0,45.0,-100.00,SSW,200,12.0,20.0,97,0.00,,,-99.99,,2013-02-11 06:12:00,
2013-02-11 01:22:00,46.0,45.0,-100.00,SSW,200,12.0,22.0,97,0.00,,,-99.99,,2013-02-11 06:22:00,
2013-02-11 01:32:00,46.0,45.0,-100.00,SSW,200,12.0,22.0,97,0.00,,,-99.99,,2013-02-11 06:32:00,
2013-02-11 01:42:00,46.0,45.0,-100.00,South,185,12.0,18.0,97,0.00,,,-99.99,,2013-02-11 06:42:00,
2013-02-11 01:51:00,45.0,45.0,-100.00,SSW,205,11.0,19.0,97,0.00,,,-99.99,,2013-02-11 06:51:00,
2013-02-11 02:01:00,45.0,45.0,-100.00,SSW,195,14.0,19.0,97,0.00,,,-99.99,,2013-02-11 07:01:00,
2013-02-11 02:11:00,46.0,45.0,-100.00,South,185,13.0,21.0,97,0.00,,,-99.99,,2013-02-11 07:11:00,
2013-02-11 02:21:00,46.0,45.0,-100.00,South,190,12.0,22.0,97,0.00,,,-99.99,,2013-02-11 07:21:00,
2013-02-11 02:32:00,46.0,45.0,-100.00,SSW,195,13.0,18.0,97,0.00,,,-99.99,,2013-02-11 07:32:00,
2013-02-11 02:42:00,45.0,45.0,-100.00,South,180,11.0,17.0,97,0.00,,,-99.99,,2013-02-11 07:42:00,
2013-02-11 02:52:00,46.0,45.0,-100.00,SSW,200,11.0,19.0,97,0.00,,,-99.99,,2013-02-11 07:52:00,
2013-02-11 03:01:00,45.0,45.0,-100.00,SSW,200,12.0,21.0,97,0.00,,,-99.99,,2013-02-11 08:01:00,
2013-02-11 03:11:00,46.0,45.0,-100.00,South,190,13.0,20.0,97,0.00,,,-99.99,,2013-02-11 08:11:00,
2013-02-11 03:21:00,46.0,45.0,-100.00,SSW,200,13.0,19.0,97,0.00,,,-99.99,,2013-02-11 08:21:00,
2013-02-11 03:32:00,45.0,45.0,-100.00,SSW,205,12.0,17.0,97,0.00,,,-99.99,,2013-02-11 08:32:00,
2013-02-11 03:42:00,45.0,45.0,-100.00,SSW,195,11.0,17.0,97,0.00,,,-99.99,,2013-02-11 08:42:00,
2013-02-11 03:52:00,46.0,45.0,-100.00,SSW,210,12.0,21.0,97,0.00,,,-99.99,,2013-02-11 08:52:00,
2013-02-11 04:02:00,46.0,45.0,-100.00,SSW,200,14.0,21.0,97,0.00,,,-99.99,,2013-02-11 09:02:00,
2013-02-11 04:12:00,45.0,45.0,-100.00,SSW,200,11.0,16.0,97,0.00,,,-99.99,,2013-02-11 09:12:00,
2013-02-11 04:21:00,45.0,44.0,-100.00,South,190,13.0,18.0,97,0.00,,,-99.99,,2013-02-11 09:21:00,
2013-02-11 04:32:00,45.0,44.0,-100.00,SSW,205,12.0,17.0,97,0.00,,,-99.99,,2013-02-11 09:32:00,
2013-02-11 04:42:00,45.0,45.0,-100.00,SSW,200,12.0,19.0,97,0.00,,,-99.99,,2013-02-11 09:42:00,
2013-02-11 04:51:00,46.0,45.0,-100.00,SSW,200,14.0,20.0,97,0.00,,,-99.99,,2013-02-11 09:51:00,
2013-02-11 05:01:00,46.0,45.0,-100.00,SSW,210,14.0,21.0,97,0.00,,,-99.99,,2013-02-11 10:01:00,
2013-02-11 05:11:00,46.0,46.0,-100.00,SSW,210,17.0,24.0,97,0.00,,,-99.99,,2013-02-11 10:11:00,
2013-02-11 05:21:00,46.0,44.0,-100.00,SW,225,20.0,30.0,91,0.00,,,-99.99,,2013-02-11 10:21:00,
2013-02-11 05:32:00,47.0,43.0,-100.00,SW,220,13.0,27.0,86,0.00,,,-99.99,,2013-02-11 10:32:00,
2013-02-11 05:42:00,47.0,44.0,-100.00,SW,225,17.0,21.0,88,0.00,,,-99.99,,2013-02-11 10:42:00,
2013-02-11 05:52:00,46.0,44.0,-100.00,SW,230,14.0,21.0,90,0.00,,,-99.99,,2013-02-11 10:52:00,
2013-02-11 06:02:00,46.0,44.0,-100.00,SW,225,16.0,21.0,91,0.00,,,-99.99,,2013-02-11 11:02:00,
2013-02-11 06:11:00,46.0,44.0,-100.00,SW,235,14.0,22.0,91,0.00,,,-99.99,,2013-02-11 11:11:00,
2013-02-11 06:22:00,46.0,42.0,-100.00,WSW,240,14.0,22.0,88,0.00,,,-99.99,,2013-02-11 11:22:00,
2013-02-11 06:32:00,46.0,40.0,-100.00,WSW,240,19.0,27.0,81,0.00,,,-99.99,,2013-02-11 11:32:00,
2013-02-11 06:42:00,45.0,37.0,-100.00,West,265,22.0,32.0,73,0.00,,,-99.99,,2013-02-11 11:42:00,
2013-02-11 06:52:00,43.0,34.0,-100.00,West,260,21.0,38.0,70,0.00,,,-99.99,,2013-02-11 11:52:00,
2013-02-11 07:03:00,42.0,33.0,-100.00,WSW,250,16.0,29.0,70,0.00,,,-99.99,,2013-02-11 12:03:00,
2013-02-11 07:12:00,42.0,33.0,-100.00,WSW,245,17.0,25.0,69,0.00,,,-99.99,,2013-02-11 12:12:00,
2013-02-11 07:22:00,42.0,31.0,-100.00,WSW,255,21.0,35.0,64,0.00,,,-99.99,,2013-02-11 12:22:00,
2013-02-11 07:32:00,41.0,29.0,-100.00,WSW,250,19.0,37.0,62,0.00,,,-99.99,,2013-02-11 12:32:00,
2013-02-11 07:42:00,41.0,29.0,-100.00,WSW,250,18.0,36.0,62,0.00,,,-99.99,,2013-02-11 12:42:00,
2013-02-11 07:52:00,40.0,29.0,-100.00,WSW,245,16.0,26.0,64,0.00,,,-99.99,,2013-02-11 12:52:00,
2013-02-11 08:02:00,40.0,30.0,-100.00,WSW,245,17.0,26.0,66,0.00,,,-99.99,,2013-02-11 13:02:00,
2013-02-11 08:12:00,40.0,30.0,-100.00,West,260,19.0,32.0,65,0.00,,,-99.99,,2013-02-11 13:12:00,
2013-02-11 08:22:00,40.0,30.0,-100.00,WSW,250,20.0,30.0,66,0.00,,,-99.99,,2013-02-11 13:22:00,
2013-02-11 08:33:00,40.0,30.0,-100.00,WSW,250,22.0,31.0,67,0.00,,,-99.99,,2013-02-11 13:33:00,
2013-02-11 08:42:00,40.0,30.0,-100.00,WSW,255,16.0,24.0,67,0.00,,,-99.99,,2013-02-11 13:42:00,
2013-02-11 08:52:00,40.0,30.0,-100.00,WSW,255,24.0,35.0,67,0.00,,,-99.99,,2013-02-11 13:52:00,
2013-02-11 09:02:00,39.0,29.0,-100.00,West,260,19.0,29.0,67,0.00,,,-99.99,,2013-02-11 14:02:00,
2013-02-11 09:11:00,39.0,29.0,-100.00,West,265,27.0,33.0,67,0.00,,,-99.99,,2013-02-11 14:11:00,
2013-02-11 09:22:00,38.0,28.0,-100.00,WSW,245,24.0,37.0,66,0.00,,,-99.99,,2013-02-11 14:22:00,
2013-02-11 09:33:00,37.0,27.0,-100.00,West,260,23.0,42.0,66,0.00,,,-99.99,,2013-02-11 14:33:00,
2013-02-11 09:42:00,37.0,27.0,-100.00,WSW,255,21.0,32.0,67,0.00,,,-99.99,,2013-02-11 14:42:00,
2013-02-11 09:52:00,37.0,27.0,-100.00,WSW,245,21.0,37.0,66,0.00,,,-99.99,,2013-02-11 14:52:00,
2013-02-11 10:02:00,37.0,27.0,-100.00,WSW,250,22.0,30.0,66,0.00,,,-99.99,,2013-02-11 15:02:00,
2013-02-11 10:11:00,37.0,27.0,-100.00,West,260,23.0,33.0,66,0.00,,,-99.99,,2013-02-11 15:11:00,
2013-02-11 10:22:00,37.0,27.0,-100.00,WSW,250,25.0,34.0,67,0.00,,,-99.99,,2013-02-11 15:22:00,
2013-02-11 10:32:00,36.0,27.0,-100.00,WSW,250,24.0,35.0,68,0.00,,,-99.99,,2013-02-11 15:32:00,
2013-02-11 10:42:00,36.0,26.0,-100.00,WSW,250,28.0,43.0,66,0.00,,,-99.99,,2013-02-11 15:42:00,
2013-02-11 10:52:00,36.0,26.0,-100.00,WSW,245,25.0,42.0,67,0.00,,,-99.99,,2013-02-11 15:52:00,
2013-02-11 11:02:00,36.0,26.0,-100.00,WSW,250,24.0,39.0,67,0.00,,,-99.99,,2013-02-11 16:02:00,
2013-02-11 11:12:00,35.0,26.0,-100.00,WSW,250,23.0,36.0,68,0.00,,,-99.99,,2013-02-11 16:12:00,
2013-02-11 11:22:00,35.0,26.0,-100.00,WSW,250,21.0,32.0,68,0.00,,,-99.99,,2013-02-11 16:22:00,
2013-02-11 11:32:00,35.0,26.0,-100.00,West,260,22.0,36.0,67,0.00,,,-99.99,,2013-02-11 16:32:00,
2013-02-11 11:42:00,35.0,26.0,-100.00,WSW,250,22.0,32.0,68,0.00,,,-99.99,,2013-02-11 16:42:00,
2013-02-11 11:52:00,35.0,26.0,-100.00,WSW,250,20.0,31.0,68,0.00,,,-99.99,,2013-02-11 16:52:00,
2013-02-11 12:02:00,35.0,26.0,-100.00,WSW,245,24.0,35.0,68,0.00,,,-99.99,,2013-02-11 17:02:00,
2013-02-11 12:11:00,36.0,26.0,-100.00,WSW,255,22.0,31.0,68,0.00,,,-99.99,,2013-02-11 17:11:00,
2013-02-11 12:22:00,35.0,27.0,-100.00,WSW,250,22.0,30.0,70,0.00,,,-99.99,,2013-02-11 17:22:00,
2013-02-11 12:32:00,35.0,27.0,-100.00,WSW,245,22.0,35.0,72,0.00,,,-99.99,,2013-02-11 17:32:00,
2013-02-11 12:42:00,35.0,27.0,-100.00,WSW,250,25.0,37.0,72,0.00,,,-99.99,,2013-02-11 17:42:00,
2013-02-11 12:52:00,35.0,26.0,-100.00,WSW,245,25.0,46.0,68,0.00,,,-99.99,,2013-02-11 17:52:00,
2013-02-11 13:02:00,35.0,24.0,-100.00,WSW,250,25.0,36.0,64,0.00,,,-99.99,,2013-02-11 18:02:00,
2013-02-11 13:11:00,35.0,25.0,-100.00,WSW,245,27.0,36.0,67,0.00,,,-99.99,,2013-02-11 18:11:00,
2013-02-11 13:22:00,35.0,26.0,-100.00,WSW,240,23.0,31.0,69,0.00,,,-99.99,,2013-02-11 18:22:00,
2013-02-11 13:32:00,35.0,25.0,-100.00,WSW,250,27.0,34.0,68,0.00,,,-99.99,,2013-02-11 18:32:00,
2013-02-11 13:42:00,35.0,26.0,-100.00,WSW,240,23.0,37.0,68,0.00,,,-99.99,,2013-02-11 18:42:00,
2013-02-11 13:52:00,35.0,25.0,-100.00,WSW,250,27.0,42.0,65,0.00,,,-99.99,,2013-02-11 18:52:00,
2013-02-11 14:02:00,35.0,25.0,-100.00,WSW,245,27.0,39.0,66,0.00,,,-99.99,,2013-02-11 19:02:00,
2013-02-11 14:11:00,35.0,26.0,-100.00,WSW,240,23.0,40.0,68,0.00,,,-99.99,,2013-02-11 19:11:00,
2013-02-11 14:22:00,35.0,26.0,-100.00,WSW,250,22.0,32.0,69,0.00,,,-99.99,,2013-02-11 19:22:00,
2013-02-11 14:32:00,35.0,26.0,-100.00,WSW,250,25.0,38.0,69,0.00,,,-99.99,,2013-02-11 19:32:00,
2013-02-11 14:42:00,35.0,26.0,-100.00,WSW,245,23.0,37.0,69,0.00,,,-99.99,,2013-02-11 19:42:00,
2013-02-11 14:51:00,35.0,26.0,-100.00,WSW,255,24.0,34.0,70,0.00,,,-99.99,,2013-02-11 19:51:00,
2013-02-11 15:02:00,35.0,26.0,-100.00,WSW,255,21.0,36.0,68,0.00,,,-99.99,,2013-02-11 20:02:00,
2013-02-11 15:11:00,35.0,26.0,-100.00,WSW,250,21.0,34.0,67,0.00,,,-99.99,,2013-02-11 20:11:00,
2013-02-11 15:21:00,35.0,26.0,-100.00,WSW,245,21.0,31.0,70,0.00,,,-99.99,,2013-02-11 20:21:00,
2013-02-11 15:32:00,35.0,26.0,-100.00,WSW,250,22.0,33.0,70,0.00,,,-99.99,,2013-02-11 20:32:00,
2013-02-11 15:42:00,35.0,26.0,-100.00,WSW,255,27.0,35.0,70,0.00,,,-99.99,,2013-02-11 20:42:00,
2013-02-11 15:52:00,35.0,26.0,-100.00,WSW,245,25.0,35.0,71,0.00,,,-99.99,,2013-02-11 20:52:00,
2013-02-11 16:02:00,35.0,26.0,-100.00,WSW,255,25.0,36.0,70,0.00,,,-99.99,,2013-02-11 21:02:00,
2013-02-11 16:12:00,35.0,26.0,-100.00,WSW,250,24.0,38.0,69,0.00,,,-99.99,,2013-02-11 21:12:00,
2013-02-11 16:22:00,35.0,26.0,-100.00,WSW,245,24.0,34.0,68,0.00,,,-99.99,,2013-02-11 21:22:00,
2013-02-11 16:32:00,35.0,26.0,-100.00,WSW,250,22.0,32.0,68,0.00,,,-99.99,,2013-02-11 21:32:00,
2013-02-11 16:42:00,35.0,26.0,-100.00,WSW,255,23.0,32.0,68,0.00,,,-99.99,,2013-02-11 21:42:00,
2013-02-11 16:52:00,35.0,25.0,-100.00,WSW,255,24.0,37.0,66,0.00,,,-99.99,,2013-02-11 21:52:00,
2013-02-11 17:02:00,35.0,26.0,-100.00,WSW,255,16.0,34.0,68,0.00,,,-99.99,,2013-02-11 22:02:00,
2013-02-11 17:12:00,35.0,26.0,-100.00,WSW,250,25.0,31.0,70,0.00,,,-99.99,,2013-02-11 22:12:00,
2013-02-11 17:22:00,35.0,26.0,-100.00,WSW,250,22.0,31.0,70,0.00,,,-99.99,,2013-02-11 22:22:00,
2013-02-11 17:32:00,35.0,26.0,-100.00,WSW,250,21.0,27.0,71,0.00,,,-99.99,,2013-02-11 22:32:00,
2013-02-11 17:42:00,34.0,26.0,-100.00,WSW,250,19.0,26.0,72,0.00,,,-99.99,,2013-02-11 22:42:00,
2013-02-11 17:52:00,34.0,26.0,-100.00,West,265,25.0,39.0,70,0.00,,,-99.99,,2013-02-11 22:52:00,
2013-02-11 18:02:00,35.0,25.0,-100.00,West,270,24.0,39.0,68,0.00,,,-99.99,,2013-02-11 23:02:00,
2013-02-11 18:11:00,34.0,25.0,-100.00,WSW,255,20.0,34.0,69,0.00,,,-99.99,,2013-02-11 23:11:00,
2013-02-11 18:22:00,34.0,26.0,-100.00,West,260,21.0,32.0,70,0.00,,,-99.99,,2013-02-11 23:22:00,
2013-02-11 18:32:00,34.0,26.0,-100.00,West,260,22.0,35.0,70,0.00,,,-99.99,,2013-02-11 23:32:00,
2013-02-11 18:42:00,34.0,26.0,-100.00,WSW,255,22.0,30.0,70,0.00,,,-99.99,,2013-02-11 23:42:00,
2013-02-11 18:52:00,34.0,26.0,-100.00,WSW,250,19.0,30.0,70,0.00,,,-99.99,,2013-02-11 23:52:00,
2013-02-11 19:02:00,34.0,26.0,-100.00,WSW,255,22.0,30.0,70,0.00,,,-99.99,,2013-02-12 00:02:00,
2013-02-11 19:12:00,34.0,26.0,-100.00,West,270,19.0,32.0,70,0.00,,,-99.99,,2013-02-12 00:12:00,
2013-02-11 19:22:00,34.0,25.0,-100.00,West,260,22.0,29.0,69,0.00,,,-99.99,,2013-02-12 00:22:00,
2013-02-11 19:32:00,34.0,25.0,-100.00,West,260,17.0,27.0,69,0.00,,,-99.99,,2013-02-12 00:32:00,
2013-02-11 19:42:00,34.0,25.0,-100.00,WSW,250,19.0,31.0,68,0.00,,,-99.99,,2013-02-12 00:42:00,
2013-02-11 19:52:00,34.0,25.0,-100.00,West,265,16.0,27.0,69,0.00,,,-99.99,,2013-02-12 00:52:00,
2013-02-11 20:02:00,34.0,25.0,-100.00,WSW,250,16.0,27.0,68,0.00,,,-99.99,,2013-02-12 01:02:00,
2013-02-11 20:11:00,34.0,25.0,-100.00,West,265,25.0,32.0,69,0.00,,,-99.99,,2013-02-12 01:11:00,
2013-02-11 20:22:00,34.0,24.0,-100.00,West,265,21.0,25.0,68,0.00,,,-99.99,,2013-02-12 01:22:00,
2013-02-11 20:32:00,34.0,24.0,-100.00,West,270,19.0,32.0,66,0.00,,,-99.99,,2013-02-12 01:32:00,
2013-02-11 20:42:00,34.0,24.0,-100.00,West,275,25.0,31.0,65,0.00,,,-99.99,,2013-02-12 01:42:00,
2013-02-11 20:52:00,33.0,24.0,-100.00,West,270,20.0,31.0,67,0.00,,,-99.99,,2013-02-12 01:52:00,
2013-02-11 21:02:00,33.0,24.0,-100.00,West,265,20.0,29.0,67,0.00,,,-99.99,,2013-02-12 02:02:00,
2013-02-11 21:12:00,34.0,24.0,-100.00,West,265,17.0,28.0,67,0.00,,,-99.99,,2013-02-12 02:12:00,
2013-02-11 21:22:00,33.0,24.0,-100.00,West,270,18.0,28.0,68,0.00,,,-99.99,,2013-02-12 02:22:00,
2013-02-11 21:32:00,33.0,24.0,-100.00,West,260,14.0,25.0,68,0.00,,,-99.99,,2013-02-12 02:32:00,
2013-02-11 21:42:00,33.0,24.0,-100.00,West,265,16.0,26.0,69,0.00,,,-99.99,,2013-02-12 02:42:00,
2013-02-11 21:52:00,33.0,24.0,-100.00,West,275,22.0,29.0,69,0.00,,,-99.99,,2013-02-12 02:52:00,
2013-02-11 22:02:00,33.0,24.0,-100.00,West,280,19.0,29.0,68,0.00,,,-99.99,,2013-02-12 03:02:00,
2013-02-11 22:11:00,33.0,24.0,-100.00,West,275,21.0,29.0,68,0.00,,,-99.99,,2013-02-12 03:11:00,
2013-02-11 22:21:00,33.0,24.0,-100.00,West,265,19.0,30.0,68,0.00,,,-99.99,,2013-02-12 03:21:00,
2013-02-11 22:32:00,33.0,24.0,-100.00,West,260,20.0,25.0,68,0.00,,,-99.99,,2013-02-12 03:32:00,
2013-02-11 22:42:00,33.0,23.0,-100.00,West,265,16.0,29.0,68,0.00,,,-99.99,,2013-02-12 03:42:00,
2013-02-11 22:51:00,33.0,23.0,-100.00,West,270,19.0,27.0,68,0.00,,,-99.99,,2013-02-12 03:51:00,
2013-02-11 23:01:00,32.0,23.0,-100.00,West,270,18.0,26.0,69,0.00,,,-99.99,,2013-02-12 04:01:00,
2013-02-11 23:11:00,33.0,24.0,-100.00,West,270,17.0,27.0,69,0.00,,,-99.99,,2013-02-12 04:11:00,
2013-02-11 23:21:00,32.0,24.0,-100.00,West,275,18.0,27.0,69,0.00,,,-99.99,,2013-02-12 04:21:00,
2013-02-11 23:32:00,32.0,23.0,-100.00,West,275,18.0,25.0,69,0.00,,,-99.99,,2013-02-12 04:32:00,
2013-02-11 23:42:00,32.0,23.0,-100.00,WNW,285,20.0,29.0,69,0.00,,,-99.99,,2013-02-12 04:42:00,
2013-02-11 23:51:00,32.0,23.0,-100.00,WNW,285,16.0,24.0,69,0.00,,,-99.99,,2013-02-12 04:51:00,